Location: BAF
(53.9483°N, 27.7497°E)
Time: 22:50:37
(UTC+02:00)

ISS - Pass Details

Date: 29 November 2020
Orbit: 418 x 419 km, 51.6° (Epoch: 16 January)

Event Time Altitude Azimuth Distance (km) Brightness Sun altitude
Rises 18:18:24 0° 266° (W) 2,367 1.7 -20.3°
Reaches altitude 10° 18:20:31 10° 262° (W) 1,502 0.3 -20.7°
Enters shadow 18:23:40 57° 198° (SSW) 499 -3.4 -21.1°
